[Iaude] MPEC J262: 2024 JP12 [a=1.35,e=0.25,i=8.8,H=26.4]
    mpec at cfa.harvard.edu 
    mpec at cfa.harvard.edu
       
    Sat May 11 07:29:44 EDT 2024
    
    
  
M.P.E.C. 2024-J262                                 Issued 2024 May 11, 11:28 UT
     The Minor Planet Electronic Circulars contain information on unusual
         minor planets, routine data on comets and natural satellites,
         and occasional editorial announcements.  They are published
    on behalf of Division F of the International Astronomical Union by the
          Minor Planet Center, Smithsonian Astrophysical Observatory,
                          Cambridge, MA 02138, U.S.A.
			  
             Prepared using the Tamkin Foundation Computer Network
                              MPC at CFA.HARVARD.EDU
            URL https://www.minorplanetcenter.net/    ISSN 1523-6714
                                   2024 JP12                                    
Observations:
     K24J12P* C2024 05 07.47004216 52 35.357+48 27 49.07         22.87GVEJ262V00
     K24J12P  C2024 05 07.47379316 52 37.632+48 27 43.96         21.97GVEJ262V00
     K24J12P  C2024 05 07.47752916 52 39.803+48 27 38.45         22.50GVEJ262V00
     K24J12P  C2024 05 07.48126316 52 41.995+48 27 32.87         22.52GVEJ262V00
     K24J12P mC2024 05 08.39283717 03 17.557+48 07 44.80         21.96GVEJ262V00
     K24J12P mC2024 05 08.39640317 03 19.800+48 07 39.25         22.25GVEJ262V00
     K24J12P mC2024 05 08.40001517 03 22.086+48 07 33.74         22.10GVEJ262V00
     K24J12P  C2024 05 08.40207617 03 23.389+48 07 30.58         22.38GVEJ262V00
     K24J12P mC2024 05 08.40351017 03 24.246+48 07 28.38         21.49GVEJ262V00
     K24J12P  C2024 05 08.41057417 03 28.760+48 07 16.68         22.46GVEJ262V00
     K24J12P  C2024 05 08.41807317 03 33.527+48 07 04.58         22.71GVEJ262V00
     K24J12P  C2024 05 08.42557417 03 38.264+48 06 51.88         22.71GVEJ262V00
     K24J12P KC2024 05 09.34222 17 15 14.73 +47 39 09.4                VEJ262291
     K24J12P KC2024 05 09.35005 17 15 20.28 +47 38 57.0          22.1 RVEJ262291
     K24J12P KC2024 05 09.35791 17 15 25.78 +47 38 41.9          22.3 RVEJ262291
     K24J12P KC2024 05 11.38444 17 44 24.86 +46 03 02.6          21.7 RVEJ262291
     K24J12P KC2024 05 11.39280 17 44 31.86 +46 02 32.8          21.9 RVEJ262291
Observer details:
291 LPL/Spacewatch II.  Observer C. Lejoly.  1.8-m f/2.7 reflector + CCD.
V00 Kitt Peak-Bok.  Observer R. A. Mastaler.  Measurers M. J. Brucker, C. E.
    Woodward, T. Beuden, V. F. Carvajal, D. Fay, J. B. Fazekas, D. C. Fuls, A.
    R. Gibbs, H. Groeller, J. K. Hogan, R. A. Kowalski, S. M. Larson, C.
    Lejoly, G. J. Leonard, R. A. Mastaler, R. S. McMillan, D. Rankin, R. L.
    Seaman, F. C. Shelly, K. W. Wierzchos.  2.25-m reflector + 4x4K mosaic
    CCD.
Orbital elements:
2024 JP12                                                Earth MOID = 0.0009 AU
Epoch 2024 Mar. 31.0 TT = JDT 2460400.5                 Veres                   
M 323.40039              (2000.0)            P               Q                  
n   0.62633368     Peri.  182.58429     -0.35231510     +0.92537344             
a   1.3528995      Node    66.81626     -0.85590276     -0.25814547             
e   0.2503813      Incl.    8.75070     -0.37855586     -0.27756965             
P   1.57           H   26.49          G   0.15           U   8                  
Residuals in seconds of arc
240507 V00  0.3-  0.1-    240508 V00  0.0   0.1+    240509 291  0.9-  2.1-
240507 V00  0.3+  0.1+    240508 V00  0.0   0.2+    240509 291  0.1+  0.1+
240507 V00  0.0   0.0     240508 V00 (0.5-  0.3+)   240509 291  0.4+  0.1-
240507 V00  0.1-  0.1-    240508 V00  0.0   0.1-    240511 291  0.0   0.1-
240508 V00  0.0   0.0     240508 V00  0.1+  0.1+    240511 291  0.0   0.2+
240508 V00  0.0   0.1-    240508 V00  0.1-  0.1-
Ephemeris:
2024 JP12                a,e,i = 1.35, 0.25, 9                   q = 1.0142
Date    TT    R. A. (2000) Decl.     Delta      r    Elong.  Phase     V
2024 04 11    14 49 04.2 +44 10 09   0.1437  1.0884   123.7    50.0    24.3
...
2024 04 26    15 32 32.0 +48 08 37   0.09342 1.0505   116.0    59.5    23.6
...
2024 05 04    16 19 55.8 +48 59 13   0.06732 1.0351   111.7    64.8    23.0
...
2024 05 10    17 23 59.7 +47 13 24   0.04888 1.0262   108.4    69.0    22.4
2024 05 11    17 38 27.5 +46 24 50   0.04602 1.0249   107.7    69.8    22.3
2024 05 12    17 54 12.0 +45 21 09   0.04325 1.0238   107.1    70.6    22.2
...
2024 05 18    19 52 13.3 +30 00 54   0.03035 1.0180   101.6    76.7    21.6
...
2024 05 26    22 22 12.2 -10 22 35   0.03297 1.0143    91.3    86.8    22.2
...
2024 06 10    00 20 31.8 -36 50 26   0.07497 1.0196    91.2    84.5    23.9
M. P. C. Staff               (C) Copyright 2024 MPC           M.P.E.C. 2024-J262
    
    
More information about the Iaude
mailing list